TimePDT,TemperatureF,Dew PointF,Humidity,Sea Level PressureIn,VisibilityMPH,Wind Direction,Wind SpeedMPH,Gust SpeedMPH,PrecipitationIn,Events,Conditions,WindDirDegrees,DateUTC
12:56 AM,57.9,52.0,81,29.74,10.0,Variable,3.5,-,N/A,,Overcast,0,2013-06-24 07:56:00
1:56 AM,55.9,51.1,84,29.75,10.0,SE,3.5,-,N/A,,Overcast,130,2013-06-24 08:56:00
2:56 AM,55.9,50.0,80,29.74,10.0,Calm,Calm,-,N/A,,Overcast,0,2013-06-24 09:56:00
3:56 AM,55.0,51.1,86,29.73,10.0,Calm,Calm,-,N/A,,Overcast,0,2013-06-24 10:56:00
4:56 AM,54.0,51.1,90,29.75,10.0,Calm,Calm,-,0.02,Rain,Light Rain,0,2013-06-24 11:56:00
5:56 AM,52.0,48.9,89,29.75,10.0,Calm,Calm,-,0.02,Rain,Light Rain,0,2013-06-24 12:56:00
6:56 AM,50.0,48.0,93,29.76,10.0,Calm,Calm,-,0.02,Rain,Light Rain,0,2013-06-24 13:56:00
7:56 AM,50.0,46.9,89,29.78,10.0,Calm,Calm,-,0.01,,Overcast,0,2013-06-24 14:56:00
8:56 AM,51.1,48.0,89,29.80,10.0,Calm,Calm,-,N/A,,Overcast,0,2013-06-24 15:56:00
9:37 AM,50.0,46.4,87,29.80,10.0,Variable,3.5,-,N/A,,Overcast,0,2013-06-24 16:37:00
9:46 AM,50.0,46.4,87,29.80,10.0,Variable,3.5,-,N/A,,Overcast,0,2013-06-24 16:46:00
9:56 AM,50.0,46.9,89,29.81,10.0,Calm,Calm,-,N/A,,Overcast,0,2013-06-24 16:56:00
10:26 AM,51.8,46.4,82,29.81,9.0,Calm,Calm,-,0.00,,Overcast,0,2013-06-24 17:26:00
10:33 AM,50.0,46.4,87,29.82,8.0,Variable,3.5,-,0.00,Rain,Light Rain,0,2013-06-24 17:33:00
10:43 AM,51.8,46.4,82,29.82,10.0,Variable,3.5,-,0.00,Rain,Light Rain,0,2013-06-24 17:43:00
10:53 AM,51.8,46.4,82,29.82,10.0,Calm,Calm,-,0.00,,Overcast,0,2013-06-24 17:53:00
10:56 AM,51.1,46.9,86,29.83,10.0,Calm,Calm,-,0.00,,Overcast,0,2013-06-24 17:56:00
11:56 AM,52.0,46.0,80,29.84,10.0,Variable,4.6,-,0.01,,Overcast,0,2013-06-24 18:56:00
12:56 PM,53.1,46.0,77,29.86,10.0,Variable,4.6,-,N/A,,Overcast,0,2013-06-24 19:56:00
1:13 PM,53.6,46.4,77,29.85,10.0,Variable,3.5,-,N/A,,Overcast,0,2013-06-24 20:13:00
1:51 PM,51.8,46.4,82,29.86,10.0,Variable,3.5,-,0.00,,Overcast,0,2013-06-24 20:51:00
1:56 PM,53.1,46.9,80,29.87,10.0,Variable,3.5,-,0.00,,Overcast,0,2013-06-24 20:56:00
2:48 PM,51.8,46.4,82,29.87,10.0,Variable,4.6,-,N/A,,Overcast,0,2013-06-24 21:48:00
2:56 PM,52.0,46.9,83,29.88,10.0,Variable,3.5,-,N/A,,Overcast,0,2013-06-24 21:56:00
3:16 PM,51.8,46.4,82,29.88,9.0,Variable,5.8,-,N/A,,Overcast,0,2013-06-24 22:16:00
3:34 PM,53.6,44.6,72,29.89,10.0,Variable,3.5,-,N/A,,Overcast,0,2013-06-24 22:34:00
3:56 PM,52.0,45.0,77,29.90,10.0,Variable,3.5,-,N/A,,Overcast,0,2013-06-24 22:56:00
4:56 PM,51.1,46.9,86,29.91,3.0,Variable,3.5,-,0.00,Rain,Light Rain,0,2013-06-24 23:56:00
5:16 PM,51.8,46.4,82,29.89,10.0,Variable,3.5,-,0.00,,Overcast,0,2013-06-25 00:16:00
5:45 PM,53.6,46.4,77,29.89,8.0,Variable,3.5,-,0.00,,Overcast,0,2013-06-25 00:45:00
5:56 PM,52.0,46.0,80,29.91,10.0,Variable,5.8,-,0.00,,Overcast,0,2013-06-25 00:56:00
6:15 PM,51.8,46.4,82,29.88,10.0,Variable,4.6,-,N/A,,Overcast,0,2013-06-25 01:15:00
6:29 PM,53.6,46.4,77,29.88,10.0,Variable,3.5,-,N/A,,Overcast,0,2013-06-25 01:29:00
6:39 PM,53.6,46.4,77,29.88,9.0,Calm,Calm,-,N/A,,Overcast,0,2013-06-25 01:39:00
6:56 PM,52.0,46.0,80,29.91,10.0,Variable,3.5,-,N/A,,Overcast,0,2013-06-25 01:56:00
7:06 PM,51.8,46.4,82,29.89,9.0,Variable,3.5,-,N/A,,Overcast,0,2013-06-25 02:06:00
7:26 PM,51.8,46.4,82,29.89,10.0,Calm,Calm,-,N/A,,Overcast,0,2013-06-25 02:26:00
7:34 PM,51.8,46.4,82,29.88,10.0,Calm,Calm,-,N/A,,Overcast,0,2013-06-25 02:34:00
7:42 PM,51.8,46.4,82,29.88,10.0,Calm,Calm,-,N/A,,Overcast,0,2013-06-25 02:42:00
7:56 PM,52.0,46.9,83,29.91,10.0,Calm,Calm,-,N/A,,Overcast,0,2013-06-25 02:56:00
8:56 PM,51.1,46.9,86,29.91,5.0,Variable,3.5,-,0.00,Rain,Light Rain,0,2013-06-25 03:56:00
9:26 PM,50.0,46.4,87,29.88,4.0,Calm,Calm,-,0.00,Rain,Light Rain,0,2013-06-25 04:26:00
9:46 PM,50.0,48.2,94,29.88,6.0,Calm,Calm,-,0.01,Rain,Light Rain,0,2013-06-25 04:46:00
9:55 PM,50.0,46.9,89,29.92,8.0,Variable,3.5,-,0.01,Rain,Light Rain,0,2013-06-25 04:55:00
10:56 PM,50.0,46.9,89,29.90,7.0,Calm,Calm,-,0.01,Rain,Light Rain,0,2013-06-25 05:56:00
11:56 PM,51.1,46.9,86,29.90,6.0,East,6.9,-,0.01,Rain,Light Rain,90,2013-06-25 06:56:00